South Hill, VA

7:41 PM EST on November 13, 2019 (GMT -0500)
Mecklenburg-Brunswick Regional

Weather History for KAVC - September, 2019

Change the Weather History Date:

Wednesday, September 18, 2019

  Actual Average (KEMV) Record (KEMV)
Temperature  
Mean Temperature 66 °F -  
Max Temperature 77 °F 80 °F 92 °F (1991)
Min Temperature 56 °F 55 °F 38 °F (1990)
Cooling Degree Days 1    
Growing Degree Days 16 (Base 50)    
Moisture  
Dew Point 57 °F    
Average Humidity 77    
Maximum Humidity 100    
Minimum Humidity 43    
Precipitation  
Precipitation 0.00 in - - ()
Sea Level Pressure  
Sea Level Pressure 30.21 in    
Wind  
Wind Speed 3 mph (NNE)    
Max Wind Speed 13 mph    
Max Gust Speed 17 mph    
Averages and records for this station are not official NWS values.
T = Trace of Precipitation, MM = Missing Value Source: NWS Daily Summary

Daily Weather History Graph

Daily Weather History Graph

Search for Another Location

Airport or City:

Astronomy

Sep. 18, 2019 Rise Set
Actual Time 6:56 AM EDT 7:15 PM EDT
Civil Twilight 6:30 AM EDT 7:41 PM EDT
Nautical Twilight 6:00 AM EDT 8:11 PM EDT
Astronomical Twilight 5:29 AM EDT 8:42 PM EDT
Moon 9:54 PM EDT (9/18) 10:52 AM EDT (9/18)
Length of Visible Light 13h 10m
Length of Day
12h 18m
Waning Gibbous, 82% of the Moon is Illuminated
Sep 18
Waning Gibbous
Sep 21
Last Quarter
Sep 28
New
Oct 5
First Quarter
Oct 13
Full

Hourly Weather History & Observations

Time (EDT) Temp. Dew Point Humidity Pressure Visibility Wind Dir Wind Speed Gust Speed Precip Events Conditions
12:15 AM 63.7 °F 63.7 °F 100% 30.15 in - North 3.5 mph - N/A   Unknown
12:35 AM 63.5 °F 63.5 °F 100% 30.16 in - Calm Calm - N/A   Unknown
12:55 AM 63.0 °F 63.0 °F 100% 30.15 in - Calm Calm - N/A   Unknown
1:15 AM 62.6 °F 62.6 °F 100% 30.16 in - North 3.5 mph - N/A   Unknown
1:35 AM 62.6 °F 62.6 °F 100% 30.16 in - NNE 3.5 mph - N/A   Unknown
1:55 AM 61.9 °F 61.9 °F 100% 30.16 in - Calm Calm - N/A   Unknown
2:15 AM 61.9 °F 61.9 °F 100% 30.17 in - Calm Calm - N/A   Unknown
2:40 AM 61.7 °F 61.7 °F 100% 30.17 in - North 4.6 mph - N/A   Unknown
2:55 AM 60.4 °F 60.4 °F 100% 30.17 in - North 3.5 mph - N/A   Unknown
3:15 AM 60.1 °F 60.1 °F 100% 30.17 in - North 4.6 mph - N/A   Unknown
3:35 AM 59.9 °F 59.9 °F 100% 30.17 in - North 3.5 mph - N/A   Unknown
3:55 AM 59.9 °F 59.9 °F 100% 30.17 in - Calm Calm - N/A   Unknown
4:15 AM 58.8 °F 58.8 °F 100% 30.17 in - Calm Calm - N/A   Unknown
4:35 AM 59.4 °F 59.4 °F 100% 30.18 in - Calm Calm - N/A   Unknown
4:55 AM 59.2 °F 59.2 °F 100% 30.18 in - Calm Calm - N/A   Unknown
5:15 AM 58.6 °F 58.6 °F 100% 30.18 in - North 3.5 mph - N/A   Unknown
5:35 AM 57.9 °F 57.9 °F 100% 30.18 in - North 4.6 mph - N/A   Unknown
5:55 AM 58.6 °F 58.6 °F 100% 30.19 in - Calm Calm - N/A   Unknown
6:15 AM 59.9 °F 59.9 °F 100% 30.19 in - NNE 3.5 mph - N/A   Unknown
6:35 AM 59.5 °F 59.5 °F 100% 30.19 in - Calm Calm - N/A   Unknown
6:55 AM 58.5 °F 58.5 °F 100% 30.19 in - NNE 3.5 mph - N/A   Unknown
7:15 AM 57.4 °F 57.4 °F 100% 30.20 in - Calm Calm - N/A   Unknown
7:35 AM 58.1 °F 58.1 °F 100% 30.20 in - Calm Calm - N/A   Mostly Cloudy
8:15 AM 61.2 °F 60.1 °F 96% 30.22 in - North 3.5 mph - N/A   Unknown
8:35 AM 62.8 °F 60.3 °F 91% 30.22 in - Calm Calm - N/A   Unknown
8:55 AM 64.4 °F 60.6 °F 88% 30.22 in - North 5.8 mph - N/A   Unknown
9:15 AM 65.8 °F 60.8 °F 84% 30.23 in - NNE 4.6 mph - N/A   Clear
9:35 AM 66.6 °F 59.9 °F 79% 30.23 in - NNE 3.5 mph - N/A   Clear
9:55 AM 67.5 °F 59.7 °F 76% 30.23 in - NE 5.8 mph - N/A   Clear
10:35 AM 70.0 °F 58.6 °F 67% 30.23 in - NNE 6.9 mph - N/A   Clear
10:55 AM 70.3 °F 55.8 °F 60% 30.23 in - ENE 3.5 mph - N/A   Clear
11:15 AM 71.8 °F 55.6 °F 57% 30.23 in - NNE 5.8 mph - N/A   Clear
11:35 AM 71.2 °F 54.9 °F 56% 30.23 in - North 9.2 mph - N/A   Clear
11:55 AM 72.3 °F 55.9 °F 56% 30.23 in - NNE 8.1 mph - N/A   Clear
12:15 PM 72.3 °F 56.1 °F 57% 30.23 in - ENE 4.6 mph - N/A   Scattered Clouds
12:35 PM 73.8 °F 56.1 °F 54% 30.23 in - North 12.7 mph 17.3 mph N/A   Mostly Cloudy
12:55 PM 74.1 °F 55.0 °F 51% 30.23 in - NNE 6.9 mph - N/A   Mostly Cloudy
1:15 PM 74.7 °F 55.0 °F 50% 30.22 in - Calm Calm - N/A   Mostly Cloudy
1:35 PM 75.4 °F 53.8 °F 47% 30.22 in - North 6.9 mph - N/A   Mostly Cloudy
1:55 PM 75.0 °F 53.1 °F 46% 30.22 in - NNE 3.5 mph - N/A   Mostly Cloudy
2:15 PM 75.0 °F 52.5 °F 45% 30.22 in - NNE 6.9 mph - N/A   Mostly Cloudy
2:35 PM 75.4 °F 53.8 °F 47% 30.22 in - NNE 5.8 mph - N/A   Mostly Cloudy
2:55 PM 76.3 °F 53.4 °F 45% 30.22 in - North 6.9 mph - N/A   Mostly Cloudy
3:15 PM 75.4 °F 53.2 °F 46% 30.21 in - North 4.6 mph - N/A   Scattered Clouds
3:35 PM 73.2 °F 52.7 °F 48% 30.21 in - North 3.5 mph - N/A   Scattered Clouds
3:55 PM 74.5 °F 52.0 °F 45% 30.21 in - NNE 8.1 mph - N/A   Mostly Cloudy
4:15 PM 76.5 °F 52.5 °F 43% 30.21 in - ENE 4.6 mph - N/A   Scattered Clouds
4:35 PM 73.0 °F 52.9 °F 49% 30.20 in - NNE 6.9 mph - N/A   Scattered Clouds
4:55 PM 75.2 °F 52.2 °F 44% 30.20 in - ENE 3.5 mph - N/A   Mostly Cloudy
5:15 PM 73.0 °F 52.5 °F 48% 30.21 in - NNE 3.5 mph - N/A   Overcast
5:35 PM 73.4 °F 52.9 °F 49% 30.21 in - North 4.6 mph - N/A   Mostly Cloudy
5:55 PM 73.9 °F 53.4 °F 49% 30.22 in - NNE 3.5 mph - N/A   Overcast
6:15 PM 72.5 °F 54.1 °F 52% 30.22 in - Calm Calm - N/A   Mostly Cloudy
6:55 PM 71.1 °F 54.0 °F 55% 30.22 in - Calm Calm - N/A   Scattered Clouds
7:15 PM 69.3 °F 54.1 °F 59% 30.22 in - Calm Calm - N/A   Scattered Clouds
7:35 PM 65.7 °F 56.5 °F 72% 30.23 in - Calm Calm - N/A   Scattered Clouds
7:55 PM 64.8 °F 56.7 °F 75% 30.23 in - Calm Calm - N/A   Mostly Cloudy
8:15 PM 63.9 °F 56.5 °F 77% 30.24 in - Calm Calm - N/A   Mostly Cloudy
8:35 PM 65.1 °F 54.7 °F 69% 30.25 in - Calm Calm - N/A   Scattered Clouds
8:55 PM 63.5 °F 55.4 °F 75% 30.25 in - Calm Calm - N/A   Clear
9:15 PM 62.4 °F 55.9 °F 79% 30.26 in - Calm Calm - N/A   Clear
9:35 PM 60.8 °F 56.3 °F 85% 30.26 in - Calm Calm - N/A   Clear
9:55 PM 59.7 °F 56.5 °F 89% 30.27 in - Calm Calm - N/A   Unknown
10:15 PM 59.0 °F 56.5 °F 91% 30.27 in - Calm Calm - N/A   Unknown
10:35 PM 58.8 °F 56.5 °F 92% 30.27 in - Calm Calm - N/A   Unknown
10:55 PM 58.3 °F 56.8 °F 95% 30.28 in - Calm Calm - N/A   Unknown
11:15 PM 57.6 °F 56.8 °F 97% 30.29 in - Calm Calm - N/A   Unknown
11:35 PM 56.5 °F 56.3 °F 99% 30.28 in - Calm Calm - N/A   Unknown
11:55 PM 56.8 °F 56.3 °F 98% 30.28 in - Calm Calm - N/A   Unknown